INTELSAT 907 (IS-907) (27683 NORAD) Tracking and Keplerian Element Data

This shows tracking and keplerian element data for the satellite.

Feedback or suggestion? Click here.




ElementValue
Catalog27683
NameINTELSAT 907 (IS-907)
Epoch Orbit5794
Epoch Day348.84452784
Epoch Year2018
RAAN242.4895
Inclination0.0235
Eccentricity0.0002602
Argument of Perigee19.662
Mean Anonmoly97.8327
Mean Motion1.00270813
Decay Rate-1.91E-06
L11 27683U 03007A 18348.84452784 -.00000191 00000-0 00000-0 0 9994
L22 27683 0.0235 242.4895 0002602 19.6620 97.8327 1.00270813 57949

Live tracking and technical data element details for INTELSAT 907 (IS-907) (NORAD 27683). INTELSAT 907 (IS-907) can be tracked NOW for your location showing map with azimuth and elevation plus other details from your city location.

Track the satellite on the map from your city or location and see movement details for azimuth, elevation, latitude, longitude, range, height, and movement on the map or in text.







IsCatalogInMostPopularTable: catalog: 27683, numindb: 51
Update: records affected: 1



GetName: 27683 INTELSAT 907 (IS-907)

Hit Count: updated at: Sun, 16 Dec 2018 09:58:14 GMT